User: anonymous   Login
Location: Unspecified
(0.0000°N, 0.0000°E)
Time: 03:26:37
(UTC+01:00)
Language:

CZ-4 R/B - Orbit

View from above orbital plane
View from above orbital plane
View from above satellite
View from above satellite

Ground track
Ground track

The orbit data is extracted from the following two-line orbital elements,

1 28059U 03049C   16336.73312905 +.00000017 +00000-0 +15906-4 0  9992
2 28059 098.5861 212.4065 0051051 128.5495 272.6270 14.52468060695023
Epoch (UTC): 01 December 2016 17:35:42
Eccentricity: 0.0051051
inclination: 98.5861°
perigee height: 681 km
apogee height: 754 km
right ascension of ascending node: 212.4065°
argument of perigee: 128.5495°
revolutions per day: 14.52468060
mean anomaly at epoch: 272.6270°
orbit number at epoch: 69502

The dashed part of the orbit path shows where the satellite is in the earth's shadow,  

DLR